Terug naar catalogus

TIANQI 36

ActiefCommunicatieLEO
NORAD 62368·PAYLOAD·🇨🇳 China

Gelanceerd Dec 19, 2024 vanaf Yellow Sea Launch Area

Loading…

Volgende Passages (komende 24 uur)

TLE

VersSource: Space-Track

Epoch: Sep 14, 2026, 20:43 UTC

1 62368U 24245D   26257.86353402 -.00000019  00000-0  74919-4 0  9990
2 62368  44.9843 282.4965 0006391  73.4258 286.7276 13.99207451 88907

Volg TIANQI 36 in realtime met AllMySat

Download on the App Store